sat.trackr.live / text

‹ back to catalog

STARLINK-34583

NORAD 64713 · 2025-142T

PAYLOAD ACTIVE UNKNOWN

§ Identity

Operator
Country
US
Launch date
2025-06-28
Launch site
AFWTR
Launch vehicle
Mass (kg)
RCS (m²)

Purposes: comms

External: N2YO · Heavens-Above · Gunter

§ Orbital elements

Epoch: 2026-05-25T02:36:11.250720Z

Period
96.11 min
Inclination
70.0005°
Eccentricity
0.0003966
Mean motion
14.98335850 rev/d
Perigee alt
569.3 km
Apogee alt
574.8 km
Semi-major
6,950.2 km
B*
2.0111e-4
RAAN
121.9027°
Arg perigee
262.6287°
Mean anomaly
97.4421°
Rev number
5,090

§ Raw data

STARLINK-345831 64713U 25142T   26145.10846355  .00002308  00000+0  20111-3 0  99952 64713  70.0005 121.9027 0003966 262.6287  97.4421 14.98335850 50901

JSON: /api/v1/satellites/64713 · /tle

For live sub-satellite position, see the globe view (requires WebGL).

§ Visibility from observer

Set your observer location to see the next 7 days of passes ≥ 10°. The values pass through the URL so the page stays shareable.

No JS? Fill the form by hand. The geolocation button needs JavaScript.